Theta_e
344 340 337 338 339 341 344 346 347 347 347 349 348 344 342 343 344 346 344 340 341 338 337 348 352 347 345 346 346 346 346 344 342 343 341 342 343 343 342 341 341 340 341
341 341 341 342 343 344 347 347 348 347 348 347 346 347 342 342 343 345 344 339 335 334 336 337 339 341 345 346 347 350 349 344 343 343 341 342 342 343 343 341 341 343 340
343 345 344 343 345 346 347 346 345 347 345 346 346 346 343 342 342 342 343 341 337 337 336 338 339 340 342 341 343 345 343 343 343 343 340 339 341 342 342 342 343 342 340
346 345 345 344 346 345 347 346 345 349 347 343 342 340 341 343 343 342 342 341 342 340 340 341 341 341 344 345 344 343 341 342 341 341 341 339 342 343 343 342 341 341 340
345 346 343 341 343 348 346 345 346 349 350 345 342 342 342 342 342 342 343 344 343 341 343 344 342 342 347 348 346 340 341 341 341 342 342 340 340 341 342 343 344 343 341
347 346 346 346 347 349 346 343 346 347 349 344 342 342 343 342 341 340 339 344 344 344 345 344 345 348 348 349 346 340 340 341 341 342 341 340 342 343 343 342 341 338 339
343 346 346 347 347 349 349 345 347 345 346 349 347 342 340 339 341 341 340 341 339 341 343 345 346 344 348 348 348 343 340 341 341 343 343 341 340 342 342 341 341 341 341
342 344 345 346 346 347 349 349 348 346 345 349 347 342 344 342 345 345 346 343 345 344 344 344 343 347 347 348 348 347 342 341 342 343 344 342 342 341 341 340 340 340 341
344 343 346 344 343 347 348 348 347 349 348 348 349 348 349 350 342 345 344 345 345 345 346 345 345 347 347 346 347 347 345 343 344 344 344 343 343 343 342 342 342 341 340
343 341 344 346 346 343 345 349 348 348 349 348 348 348 350 347 349 353 345 344 347 348 347 346 345 345 348 348 348 345 347 345 345 344 344 345 344 343 343 344 342 341 340
342 343 341 346 346 345 347 346 346 347 347 349 349 348 348 348 345 345 348 343 346 347 349 345 344 345 346 348 348 347 347 348 345 344 345 344 344 344 344 342 342 340 339
344 342 342 343 346 346 346 348 346 344 345 348 349 349 349 348 348 345 346 345 346 347 348 348 346 347 348 349 349 348 347 348 346 344 344 344 344 344 343 342 341 339 336
343 344 344 343 343 346 345 347 346 347 346 348 349 348 349 348 350 349 348 346 347 346 347 349 349 349 349 351 350 347 346 346 345 344 344 343 342 342 341 340 338 335 332
344 343 345 344 343 347 348 348 348 348 347 348 347 348 348 348 349 351 350 347 351 343 345 348 348 349 350 350 348 348 347 346 346 345 343 342 341 341 340 338 334 329 325
347 344 345 346 344 344 346 346 348 348 348 348 348 348 349 348 350 350 350 350 349 351 348 345 347 347 347 345 346 346 348 348 347 344 342 341 340 340 337 334 329 325 322
346 347 347 346 346 346 347 347 347 348 348 348 348 348 349 349 349 349 350 351 351 346 352 345 347 347 348 349 349 344 348 349 346 344 342 341 340 337 334 329 325 322 320
346 345 345 346 345 345 345 345 343 346 347 347 348 348 349 349 348 347 349 350 350 348 348 348 347 345 348 349 347 343 348 349 346 343 342 340 337 334 331 327 324 321 319
347 348 348 347 346 346 347 347 348 347 347 346 346 347 347 348 348 347 348 349 349 349 349 349 348 348 348 349 347 345 349 347 344 342 340 337 335 332 328 324 322 319 321
347 348 348 347 346 345 346 347 349 348 348 348 347 347 347 348 348 348 349 349 348 348 349 349 349 349 348 347 345 347 345 343 341 339 337 335 333 329 327 324 322 322 321
346 346 346 347 345 345 345 346 347 347 347 348 348 348 347 348 348 349 349 349 348 348 350 350 350 350 350 349 348 345 339 339 337 334 333 331 329 327 323 322 322 322 324
348 348 347 343 340 337 338 339 345 345 346 346 348 348 348 348 348 348 349 349 349 348 349 349 349 349 349 347 348 343 339 337 332 330 328 325 325 322 322 322 322 321 317
350 347 345 344 342 341 339 337 339 341 339 344 345 345 348 348 349 349 348 348 349 348 349 349 350 349 348 348 348 345 340 332 332 331 328 323 324 322 320 321 318 316 316
350 349 347 347 345 344 342 342 343 342 337 341 343 346 347 349 349 348 349 348 348 349 349 348 349 349 349 349 347 344 342 338 337 335 329 323 325 323 320 318 315 314 313
344 344 345 345 345 346 345 343 342 341 342 344 345 346 348 347 348 348 349 348 349 349 350 350 349 349 349 349 348 347 344 340 337 334 330 326 325 322 320 316 315 313 312
322 321 320 321 321 323 324 324 323 325 331 335 340 344 347 347 347 350 347 348 348 349 348 349 350 349 348 349 348 346 341 337 330 330 331 329 325 320 317 314 314 314 313
319 319 318 318 318 318 319 319 320 319 319 322 325 334 342 345 347 347 347 345 348 347 347 348 348 349 347 347 346 344 341 338 328 326 331 327 321 319 317 314 315 314 314
Wind_Speed
5 5 3 2 1 4 7 7 8 6 6 8 7 7 9 8 5 8 8 7 9 13 14 14 15 13 11 9 9 9 9 8 7 7 8 6 6 7 7 8 7 6 6
6 2 2 1 2 4 6 5 5 5 7 9 8 6 7 3 1 6 9 7 8 10 11 10 9 9 10 10 10 8 7 6 4 3 3 3 4 5 5 5 4 4 4
3 2 2 2 2 3 3 5 4 8 10 6 2 4 7 4 2 5 9 8 9 10 10 10 9 7 10 10 9 8 4 2 1 2 1 1 1 3 4 4 3 3 3
4 3 2 2 5 3 4 5 4 6 8 3 1 3 6 6 5 7 9 10 9 8 8 11 10 9 6 5 6 6 2 1 0 1 2 1 2 2 3 3 3 3 4
5 4 2 4 2 2 4 2 1 7 8 4 2 3 4 5 7 10 11 11 10 8 8 10 6 4 2 2 3 4 3 1 1 0 1 1 2 1 1 2 3 3 4
7 6 2 4 2 2 3 1 1 5 8 4 5 6 4 4 5 8 10 8 6 9 12 11 3 2 2 3 3 3 3 2 1 0 1 1 1 1 1 1 1 1 2
10 8 5 2 1 2 1 2 2 3 4 9 6 4 5 10 7 7 9 8 8 5 6 3 3 2 2 4 4 2 1 2 2 1 1 1 0 1 1 1 2 1 2
13 12 9 5 3 3 2 1 3 2 3 8 5 3 3 3 10 2 8 4 2 6 3 5 1 2 2 2 3 3 1 1 2 1 2 1 1 1 1 1 2 2 3
14 13 11 9 5 3 3 1 2 3 3 3 5 3 1 1 5 5 8 7 8 10 10 9 4 2 2 2 1 3 2 2 2 1 1 1 2 2 2 2 3 3 3
13 13 13 11 9 8 7 6 4 4 4 3 3 3 2 1 0 3 4 9 12 14 13 6 5 4 3 2 0 2 3 3 2 2 2 1 1 2 3 3 3 4 4
15 16 15 12 13 11 10 10 9 7 7 5 5 4 2 1 1 1 2 8 11 12 13 11 5 6 4 4 3 4 2 4 3 3 2 2 2 2 2 2 3 3 3
16 17 17 15 14 14 14 12 12 11 11 10 9 9 7 4 3 2 1 2 5 8 11 10 6 1 6 5 5 4 3 4 4 4 3 3 3 3 2 2 2 2 3
16 16 18 17 17 16 15 15 15 13 14 13 12 12 12 12 9 5 3 2 2 4 4 7 4 2 3 4 5 6 5 4 5 4 3 2 2 3 2 2 2 2 3
20 18 18 17 18 19 17 16 17 16 15 16 15 15 14 13 13 11 7 3 1 2 3 7 8 5 4 4 5 5 4 6 6 5 3 2 1 1 1 1 2 3 4
18 19 19 20 20 22 21 18 19 21 19 18 18 17 16 14 14 13 12 11 5 2 2 4 4 6 9 9 7 5 4 7 6 6 5 2 1 1 1 2 2 2 3
18 17 18 18 18 20 20 20 21 24 24 23 21 20 19 18 17 14 14 16 15 11 3 4 5 9 8 8 9 6 7 7 7 7 5 2 1 2 2 2 2 3 3
21 20 19 18 18 19 20 21 21 23 24 26 24 22 23 21 19 18 16 13 13 14 8 10 11 11 11 11 10 9 10 9 9 7 5 4 4 4 3 3 3 3 4
23 20 21 22 20 21 22 23 25 25 24 24 26 25 27 24 23 21 20 20 19 19 17 13 15 14 12 12 12 11 11 11 11 10 8 6 6 5 4 4 4 4 4
26 24 23 24 23 22 21 21 23 25 26 26 28 27 27 28 27 25 23 21 21 21 19 18 16 12 10 12 11 11 12 12 12 12 11 9 8 7 6 6 6 5 6
28 30 30 29 25 24 23 23 23 24 25 24 26 31 30 31 30 28 28 28 25 23 20 19 18 15 12 10 14 18 14 14 14 14 13 11 10 9 9 8 8 9 8
25 27 27 27 30 26 26 23 22 21 24 26 25 28 31 32 32 31 30 30 28 25 23 20 14 12 12 12 17 18 16 17 16 15 16 14 13 11 10 9 10 10 11
21 25 27 26 25 28 25 28 24 26 27 28 29 29 29 32 34 35 33 31 31 28 26 21 18 15 19 22 21 19 17 12 6 16 18 16 13 14 13 12 11 13 13
13 18 23 25 27 26 27 28 29 28 27 32 30 27 28 30 34 35 33 31 32 33 32 30 24 26 22 26 25 21 24 24 11 17 21 14 17 16 12 13 12 14 14
6 10 14 17 24 29 29 29 28 27 31 29 30 31 31 32 30 35 31 30 31 31 33 34 33 32 30 27 24 28 28 22 14 18 23 7 20 17 16 15 14 15 16
5 8 11 16 20 27 30 33 32 34 36 37 34 33 34 35 34 35 27 30 31 33 29 29 31 31 31 28 23 26 25 23 6 12 23 11 20 18 15 16 15 15 14
6 11 14 17 19 24 27 27 26 29 31 32 31 31 34 35 35 33 32 30 26 32 32 30 30 29 26 21 20 25 27 24 14 6 21 7 27 17 6 12 15 14 13
Wind_Direction
174 172 164 172 249 296 312 335 338 330 330 318 318 316 308 324 254 239 270 260 243 237 236 236 248 261 273 285 291 292 285 293 293 285 278 261 240 226 215 212 224 236 249
142 164 181 244 298 322 320 340 350 335 324 310 297 292 304 322 281 232 253 265 270 257 251 256 256 268 279 288 294 298 297 289 307 281 256 267 226 207 204 207 224 250 256
191 164 198 222 291 316 325 326 314 323 328 324 312 234 276 271 262 254 256 265 272 275 267 274 276 283 283 283 305 308 300 284 290 285 247 264 194 181 187 199 221 259 266
196 180 197 238 283 278 295 329 305 325 360 314 276 316 282 272 273 280 273 268 266 267 298 294 281 293 292 279 305 306 289 259 332 319 342 68 131 152 196 213 227 239 244
197 172 293 236 196 286 291 298 314 336 342 299 319 302 295 283 289 285 280 277 265 253 293 317 305 297 303 315 311 300 266 242 250 4 14 62 134 144 188 274 266 245 243
198 183 157 166 225 330 347 184 340 344 349 357 292 292 280 311 313 301 300 284 268 267 287 293 261 345 345 321 303 257 231 220 213 303 20 107 138 89 54 29 353 290 251
214 209 198 218 265 282 37 28 21 351 332 7 328 322 281 274 307 305 313 280 288 301 311 3 232 228 273 297 294 299 227 205 208 272 310 62 109 311 4 19 18 348 305
222 215 213 221 241 273 221 32 1 22 22 26 8 346 358 346 352 342 342 339 313 317 309 315 309 274 257 247 286 288 295 256 205 104 289 324 3 25 3 356 352 341 324
217 221 225 229 235 254 261 295 311 351 16 359 32 44 13 295 325 352 11 18 344 342 326 285 279 229 197 156 318 265 284 289 238 183 244 285 328 350 346 345 344 336 325
226 228 230 233 250 247 252 264 270 284 304 331 321 8 356 275 98 334 348 360 359 3 359 355 245 250 209 197 359 348 276 252 244 214 259 281 311 322 331 329 327 325 324
240 240 240 242 250 252 246 251 267 276 277 275 289 298 297 315 155 147 297 336 354 346 3 6 335 228 215 212 248 330 275 234 234 232 240 273 300 305 310 310 318 322 327
241 241 242 247 250 256 257 256 266 272 273 270 270 272 270 249 239 197 204 296 307 338 333 353 5 254 200 232 275 313 297 211 223 227 242 272 290 297 301 328 343 338 10
248 243 238 246 249 256 259 261 264 272 274 270 275 275 270 268 257 253 240 271 291 313 309 323 3 325 222 246 277 304 280 225 231 233 244 243 265 292 312 347 18 20 37
252 243 240 252 254 255 258 265 265 268 273 273 271 272 276 272 263 260 258 223 298 291 293 261 296 272 240 261 273 290 276 235 235 238 238 241 245 249 265 351 25 43 55
257 249 252 255 269 261 266 268 271 273 270 270 272 269 271 276 270 266 261 258 228 252 277 286 273 254 259 275 253 252 265 231 220 226 215 212 160 190 114 105 92 66 49
255 262 260 262 268 266 266 271 277 273 267 266 267 267 268 269 269 270 261 258 251 236 243 245 292 278 276 254 219 247 239 209 211 210 204 194 163 138 132 129 104 74 63
249 251 257 262 265 269 268 277 273 274 277 269 264 265 268 268 268 266 262 252 247 232 236 269 268 276 268 244 242 244 227 201 204 195 198 176 149 149 149 144 121 101 89
250 253 258 262 268 274 277 275 278 276 275 268 262 267 271 267 268 270 257 252 255 251 245 252 268 271 265 247 241 232 212 193 193 183 177 166 166 160 151 136 124 112 94
251 252 255 258 261 267 270 269 273 276 277 272 266 262 267 266 266 268 263 263 264 262 255 250 257 265 258 243 215 203 193 184 179 177 170 174 165 157 152 146 132 113 97
250 252 255 252 254 257 261 265 265 268 269 272 270 266 269 265 265 265 264 265 267 265 258 252 258 259 257 245 226 198 184 182 173 174 174 169 167 157 147 141 132 120 108
253 253 245 256 268 274 265 266 271 271 272 271 271 271 273 273 269 268 265 266 263 261 259 250 247 248 240 224 208 204 195 185 181 181 167 164 163 157 149 143 134 124 119
243 248 255 276 273 273 273 278 277 274 278 274 269 270 274 276 274 271 269 267 263 258 252 239 240 234 242 243 233 211 188 162 187 197 173 162 166 153 153 149 145 139 130
248 254 263 274 282 287 282 283 279 276 272 278 270 265 269 268 274 272 268 265 261 258 257 253 240 241 243 254 239 204 200 195 189 184 178 161 164 152 157 150 150 142 135
266 278 282 285 286 287 285 283 280 273 268 269 268 267 263 266 262 264 264 264 262 259 253 248 249 254 258 261 254 237 218 194 188 182 181 140 173 157 162 159 160 147 143
289 300 307 303 297 288 287 285 284 279 274 270 270 270 266 263 262 258 254 261 264 262 258 253 250 251 255 259 253 227 193 172 148 178 182 158 163 147 160 168 159 155 153
3 351 347 342 335 327 319 309 299 285 281 275 269 259 257 259 258 257 257 255 248 258 257 247 246 244 246 251 246 229 213 178 154 132 184 135 151 138 137 175 168 169 168